When you browse on this site, cookies collect data to enhance your experience and personalize the content and advertising you see.
Visit our Privacy Policy to learn more. By continuing to use the site, you agree to this use of cookies and data.
  • In Romania
  • List of Countries
  • For 7 days
  • Water Temperature
  • Weather Map
  • Weather Widgets
  • user-avatar
    Login

    Hourly Weather Serovo

    Today, 29 May, Friday

    Time Temperature Precipitation Wind Pressure Humidity
    00:00 +9°C° 0 mm 2 mps 747 mmHg 95%
    01:00 +9°C° 0 mm 2 mps 747 mmHg 96%
    02:00 +9°C° 0 mm 3 mps 748 mmHg 97%
    03:00 +9°C° 0 mm 3 mps 747 mmHg 96%
    04:00 +9°C° 0 mm 3 mps 747 mmHg 96%
    05:00 +8°C° 0 mm 4 mps 746 mmHg 95%
    06:00 +10°C° 0 mm 4 mps 746 mmHg 92%
    07:00 +10°C° 0 mm 4 mps 746 mmHg 90%
    08:00 +11°C° 0 mm 4 mps 746 mmHg 87%
    09:00 +12°C° 0 mm 4 mps 746 mmHg 84%
    10:00 +13°C° 0 mm 4 mps 746 mmHg 80%
    11:00 +13°C° 0 mm 4 mps 746 mmHg 77%
    12:00 +13°C° 0.5 mm 4 mps 746 mmHg 81%
    13:00 +13°C° 0.5 mm 3 mps 746 mmHg 84%
    14:00 +13°C° 0.5 mm 3 mps 746 mmHg 88%
    15:00 +13°C° 0.3 mm 3 mps 745 mmHg 89%
    16:00 +13°C° 0.3 mm 3 mps 745 mmHg 89%
    17:00 +12°C° 0.3 mm 3 mps 745 mmHg 89%
    18:00 +12°C° 0 mm 3 mps 745 mmHg 89%
    19:00 +12°C° 0 mm 3 mps 745 mmHg 88%
    20:00 +12°C° 0 mm 3 mps 745 mmHg 88%
    21:00 +12°C° 0 mm 3 mps 745 mmHg 87%
    22:00 +12°C° 0 mm 3 mps 745 mmHg 86%
    23:00 +12°C° 0 mm 4 mps 745 mmHg 85%

    Tomorrow, 30 May, Saturday

    Time Temperature Precipitation Wind Pressure Humidity
    00:00 +11°C° 0 mm 4 mps 745 mmHg 87%
    01:00 +11°C° 0 mm 3 mps 745 mmHg 88%
    02:00 +10°C° 0 mm 3 mps 745 mmHg 89%
    03:00 +11°C° 0 mm 4 mps 745 mmHg 88%
    04:00 +11°C° 0 mm 4 mps 745 mmHg 87%
    05:00 +12°C° 0 mm 4 mps 745 mmHg 85%
    06:00 +13°C° 0 mm 5 mps 745 mmHg 80%
    07:00 +14°C° 0 mm 5 mps 745 mmHg 75%
    08:00 +15°C° 0 mm 5 mps 745 mmHg 70%
    09:00 +16°C° 0 mm 6 mps 745 mmHg 65%
    10:00 +19°C° 0 mm 6 mps 745 mmHg 60%
    11:00 +20°C° 0 mm 6 mps 745 mmHg 55%
    12:00 +20°C° 0 mm 6 mps 744 mmHg 56%
    13:00 +20°C° 0 mm 6 mps 744 mmHg 56%
    14:00 +20°C° 0 mm 6 mps 744 mmHg 56%
    15:00 +20°C° 0 mm 6 mps 744 mmHg 57%
    16:00 +20°C° 0 mm 6 mps 744 mmHg 59%
    17:00 +20°C° 0 mm 6 mps 743 mmHg 60%
    18:00 +19°C° 0 mm 5 mps 743 mmHg 62%
    19:00 +17°C° 0 mm 5 mps 743 mmHg 64%
    20:00 +16°C° 0 mm 5 mps 743 mmHg 67%
    21:00 +15°C° 0 mm 5 mps 743 mmHg 68%
    22:00 +14°C° 0 mm 5 mps 744 mmHg 69%
    23:00 +14°C° 0 mm 5 mps 744 mmHg 70%

    Day after tomorrow, 31 May, Sunday

    Time Temperature Precipitation Wind Pressure Humidity
    00:00 +13°C° 0 mm 5 mps 744 mmHg 69%
    01:00 +13°C° 0 mm 5 mps 744 mmHg 67%
    02:00 +12°C° 0 mm 5 mps 744 mmHg 66%
    03:00 +11°C° 0 mm 6 mps 744 mmHg 66%
    04:00 +11°C° 0 mm 6 mps 744 mmHg 65%
    05:00 +11°C° 0 mm 6 mps 744 mmHg 65%
    06:00 +13°C° 0 mm 6 mps 745 mmHg 60%
    07:00 +14°C° 0 mm 6 mps 745 mmHg 56%
    08:00 +15°C° 0 mm 6 mps 746 mmHg 51%
    09:00 +16°C° 0 mm 6 mps 746 mmHg 48%
    10:00 +17°C° 0 mm 6 mps 746 mmHg 45%
    11:00 +19°C° 0 mm 6 mps 746 mmHg 41%
    12:00 +20°C° 0 mm 6 mps 746 mmHg 41%
    13:00 +20°C° 0 mm 6 mps 746 mmHg 40%
    14:00 +21°C° 0 mm 6 mps 746 mmHg 40%
    15:00 +20°C° 0 mm 6 mps 746 mmHg 42%
    16:00 +20°C° 0 mm 5 mps 747 mmHg 43%
    17:00 +20°C° 0 mm 5 mps 747 mmHg 45%
    18:00 +17°C° 0 mm 5 mps 747 mmHg 51%
    19:00 +15°C° 0 mm 4 mps 748 mmHg 57%
    20:00 +13°C° 0 mm 3 mps 748 mmHg 63%
    21:00 +12°C° 0 mm 3 mps 748 mmHg 64%
    22:00 +11°C° 0 mm 3 mps 749 mmHg 65%
    23:00 +10°C° 0 mm 3 mps 750 mmHg 66%

    1 June, Monday

    Time Temperature Precipitation Wind Pressure Humidity
    00:00 +9°C° 0 mm 3 mps 750 mmHg 70%
    01:00 +8°C° 0 mm 2 mps 750 mmHg 73%
    02:00 +7°C° 0 mm 2 mps 750 mmHg 76%
    03:00 +7°C° 0 mm 2 mps 750 mmHg 76%
    04:00 +8°C° 0 mm 2 mps 750 mmHg 75%
    05:00 +8°C° 0 mm 2 mps 751 mmHg 74%
    06:00 +10°C° 0 mm 2 mps 751 mmHg 67%
    07:00 +12°C° 0 mm 3 mps 751 mmHg 61%
    08:00 +14°C° 0 mm 3 mps 751 mmHg 54%
    09:00 +16°C° 0 mm 3 mps 751 mmHg 54%
    10:00 +17°C° 0 mm 4 mps 750 mmHg 53%
    11:00 +18°C° 0 mm 4 mps 750 mmHg 53%
    12:00 +18°C° 0 mm 4 mps 750 mmHg 53%
    13:00 +19°C° 0 mm 4 mps 750 mmHg 52%
    14:00 +19°C° 0 mm 4 mps 749 mmHg 52%
    15:00 +19°C° 0.1 mm 3 mps 749 mmHg 57%
    16:00 +18°C° 0.1 mm 3 mps 749 mmHg 61%
    17:00 +18°C° 0.1 mm 3 mps 749 mmHg 66%
    18:00 +17°C° 0 mm 2 mps 749 mmHg 71%
    19:00 +15°C° 0 mm 2 mps 749 mmHg 77%
    20:00 +14°C° 0 mm 2 mps 749 mmHg 83%
    21:00 +13°C° 0 mm 2 mps 748 mmHg 87%
    22:00 +12°C° 0 mm 1 mps 748 mmHg 91%
    23:00 +11°C° 0 mm 1 mps 748 mmHg 95%

    2 June, Tuesday

    Time Temperature Precipitation Wind Pressure Humidity
    00:00 +11°C° 0 mm 1 mps 748 mmHg 95%
    01:00 +11°C° 0 mm 1 mps 748 mmHg 95%
    02:00 +10°C° 0 mm 1 mps 748 mmHg 96%
    03:00 +11°C° 0 mm 1 mps 748 mmHg 94%
    04:00 +10°C° 0 mm 2 mps 748 mmHg 93%
    05:00 +12°C° 0 mm 2 mps 748 mmHg 91%
    06:00 +12°C° 0.3 mm 2 mps 748 mmHg 93%
    07:00 +12°C° 0.3 mm 2 mps 748 mmHg 94%
    08:00 +12°C° 0.3 mm 2 mps 748 mmHg 95%
    09:00 +12°C° 0.1 mm 2 mps 748 mmHg 94%
    10:00 +13°C° 0.1 mm 2 mps 748 mmHg 93%
    11:00 +13°C° 0.1 mm 2 mps 748 mmHg 93%
    12:00 +15°C° 0.1 mm 2 mps 747 mmHg 83%
    13:00 +17°C° 0.1 mm 3 mps 747 mmHg 73%
    14:00 +18°C° 0.1 mm 3 mps 747 mmHg 64%
    15:00 +18°C° 0.3 mm 3 mps 746 mmHg 66%
    16:00 +18°C° 0.3 mm 3 mps 746 mmHg 68%
    17:00 +18°C° 0.3 mm 3 mps 746 mmHg 71%
    18:00 +16°C° 0.1 mm 2 mps 746 mmHg 77%
    19:00 +15°C° 0.1 mm 2 mps 746 mmHg 83%
    20:00 +14°C° 0.1 mm 1 mps 746 mmHg 89%
    21:00 +13°C° 0 mm 1 mps 746 mmHg 90%
    22:00 +12°C° 0 mm 1 mps 746 mmHg 91%
    23:00 +10°C° 0 mm 1 mps 746 mmHg 92%

    3 June, Wednesday

    Time Temperature Precipitation Wind Pressure Humidity
    00:00 +10°C° 0 mm 1 mps 746 mmHg 92%
    01:00 +9°C° 0 mm 0 mps 746 mmHg 92%
    02:00 +8°C° 0 mm 0 mps 746 mmHg 93%
    03:00 +9°C° 0 mm 0 mps 746 mmHg 91%
    04:00 +9°C° 0 mm 0 mps 746 mmHg 89%
    05:00 +10°C° 0 mm 0 mps 746 mmHg 87%
    06:00 +12°C° 0 mm 0 mps 746 mmHg 80%
    07:00 +15°C° 0 mm 1 mps 746 mmHg 73%
    08:00 +18°C° 0 mm 1 mps 746 mmHg 65%
    09:00 +20°C° 0 mm 1 mps 746 mmHg 60%
    10:00 +21°C° 0 mm 1 mps 746 mmHg 55%
    11:00 +23°C° 0 mm 1 mps 746 mmHg 50%
    12:00 +22°C° 0.2 mm 1 mps 746 mmHg 53%
    13:00 +22°C° 0.2 mm 1 mps 745 mmHg 56%
    14:00 +22°C° 0.2 mm 1 mps 745 mmHg 60%
    15:00 +21°C° 0.5 mm 1 mps 745 mmHg 66%
    16:00 +21°C° 0.5 mm 1 mps 745 mmHg 73%
    17:00 +20°C° 0.5 mm 1 mps 745 mmHg 79%
    18:00 +19°C° 0.1 mm 1 mps 744 mmHg 82%
    19:00 +18°C° 0.1 mm 1 mps 744 mmHg 85%
    20:00 +16°C° 0.1 mm 1 mps 744 mmHg 89%
    21:00 +15°C° 0 mm 1 mps 744 mmHg 90%
    22:00 +14°C° 0 mm 1 mps 745 mmHg 91%
    23:00 +13°C° 0 mm 1 mps 745 mmHg 92%
    Show more